Time,TemperatureF,DewpointF,PressureIn,WindDirection,WindDirectionDegrees,WindSpeedMPH,WindSpeedGustMPH,Humidity,HourlyPrecipIn,Conditions,Clouds,dailyrainin,SoftwareType,DateUTC
2013-03-29 00:00:00,42.3,24.0,28.17,South,180,0.0,0.0,48,0.00,,---,0.00,VWS V14.01,2013-03-29 04:00:00,
2013-03-29 00:01:00,42.3,24.0,28.17,SSW,202,0.0,0.0,48,0.00,,---,0.00,VWS V14.01,2013-03-29 04:01:00,
2013-03-29 00:06:00,42.1,23.8,28.17,SSW,202,0.0,0.0,48,0.00,,---,0.00,VWS V14.01,2013-03-29 04:06:00,
2013-03-29 00:11:00,42.1,23.8,28.17,SSW,202,0.0,0.0,48,0.00,,---,0.00,VWS V14.01,2013-03-29 04:11:00,
2013-03-29 00:16:00,41.5,23.3,28.17,SSW,202,0.0,0.0,48,0.00,,---,0.00,VWS V14.01,2013-03-29 04:16:00,
2013-03-29 00:21:00,41.2,23.0,28.17,SSW,202,0.0,0.0,48,0.00,,---,0.00,VWS V14.01,2013-03-29 04:21:00,
2013-03-29 00:26:00,41.0,22.8,28.17,SSW,202,0.0,0.0,48,0.00,,---,0.00,VWS V14.01,2013-03-29 04:26:00,
2013-03-29 00:31:00,41.0,22.8,28.17,SSW,202,0.0,0.0,48,0.00,,---,0.00,VWS V14.01,2013-03-29 04:31:00,
2013-03-29 00:36:00,41.2,23.0,28.17,SSW,202,0.0,0.0,48,0.00,,---,0.00,VWS V14.01,2013-03-29 04:36:00,
2013-03-29 00:42:00,41.2,23.0,28.17,SSW,202,0.0,0.0,48,0.00,,---,0.00,VWS V14.01,2013-03-29 04:42:00,
2013-03-29 00:47:00,41.2,23.5,28.17,SSW,202,0.0,0.0,49,0.00,,---,0.00,VWS V14.01,2013-03-29 04:47:00,
2013-03-29 00:52:00,41.4,23.6,28.17,SSW,202,0.0,0.0,49,0.00,,---,0.00,VWS V14.01,2013-03-29 04:52:00,
2013-03-29 00:57:00,41.4,23.6,28.17,SSW,202,0.0,0.0,49,0.00,,---,0.00,VWS V14.01,2013-03-29 04:57:00,
2013-03-29 01:02:00,41.2,23.5,28.17,SSW,202,0.0,0.0,49,0.00,,---,0.00,VWS V14.01,2013-03-29 05:02:00,
2013-03-29 01:07:00,41.2,23.5,28.17,SSW,202,0.0,0.0,49,0.00,,---,0.00,VWS V14.01,2013-03-29 05:07:00,
2013-03-29 01:12:00,41.0,23.3,28.17,SSW,202,0.0,0.0,49,0.00,,---,0.00,VWS V14.01,2013-03-29 05:12:00,
2013-03-29 01:17:00,41.0,23.3,28.17,SSW,202,0.0,0.0,49,0.00,,---,0.00,VWS V14.01,2013-03-29 05:17:00,
2013-03-29 01:23:00,40.8,23.1,28.17,SSW,202,0.0,0.0,49,0.00,,---,0.00,VWS V14.01,2013-03-29 05:23:00,
2013-03-29 01:28:00,41.0,23.3,28.17,North,0,0.0,0.0,49,0.00,,---,0.00,VWS V14.01,2013-03-29 05:28:00,
2013-03-29 01:33:00,41.0,23.3,28.17,North,0,0.0,0.0,49,0.00,,---,0.00,VWS V14.01,2013-03-29 05:33:00,
2013-03-29 01:38:00,41.2,23.5,28.17,North,0,0.0,0.0,49,0.00,,---,0.00,VWS V14.01,2013-03-29 05:38:00,
2013-03-29 01:43:00,41.5,23.8,28.17,North,0,0.0,0.0,49,0.00,,---,0.00,VWS V14.01,2013-03-29 05:43:00,
2013-03-29 01:48:00,41.7,24.0,28.17,North,0,0.0,0.0,49,0.00,,---,0.00,VWS V14.01,2013-03-29 05:48:00,
2013-03-29 01:53:00,42.1,24.3,28.17,WSW,248,0.0,0.0,49,0.00,,---,0.00,VWS V14.01,2013-03-29 05:53:00,
2013-03-29 01:58:00,42.3,24.5,28.17,WSW,248,0.0,0.0,49,0.00,,---,0.00,VWS V14.01,2013-03-29 05:58:00,
2013-03-29 02:03:00,42.6,24.8,28.17,WSW,248,0.0,0.0,49,0.00,,---,0.00,VWS V14.01,2013-03-29 06:03:00,
2013-03-29 02:08:00,42.8,24.5,28.17,WSW,248,0.0,0.0,48,0.00,,---,0.00,VWS V14.01,2013-03-29 06:08:00,
2013-03-29 02:13:00,43.0,24.6,28.17,NW,315,0.0,0.0,48,0.00,,---,0.00,VWS V14.01,2013-03-29 06:13:00,
2013-03-29 02:18:00,43.2,24.8,28.17,NW,315,0.0,0.0,48,0.00,,---,0.00,VWS V14.01,2013-03-29 06:18:00,
2013-03-29 02:23:00,43.2,24.8,28.17,NW,315,0.0,0.0,48,0.00,,---,0.00,VWS V14.01,2013-03-29 06:23:00,
2013-03-29 02:28:00,43.3,25.0,28.17,NW,315,0.0,0.0,48,0.00,,---,0.00,VWS V14.01,2013-03-29 06:28:00,
2013-03-29 02:34:00,43.5,25.1,28.17,NW,315,0.0,0.0,48,0.00,,---,0.00,VWS V14.01,2013-03-29 06:34:00,
2013-03-29 02:39:00,43.5,25.1,28.17,NW,315,0.0,0.0,48,0.00,,---,0.00,VWS V14.01,2013-03-29 06:39:00,
2013-03-29 02:44:00,43.7,25.3,28.17,South,180,0.0,0.0,48,0.00,,---,0.00,VWS V14.01,2013-03-29 06:44:00,
2013-03-29 02:49:00,44.1,25.6,28.17,SE,135,0.0,0.0,48,0.00,,---,0.00,VWS V14.01,2013-03-29 06:49:00,
2013-03-29 02:54:00,44.1,25.6,28.17,WSW,248,0.0,0.0,48,0.00,,---,0.00,VWS V14.01,2013-03-29 06:54:00,
2013-03-29 02:59:00,44.1,25.6,28.17,WNW,292,0.9,0.9,48,0.00,,---,0.00,VWS V14.01,2013-03-29 06:59:00,
2013-03-29 03:04:00,44.2,25.8,28.17,WSW,248,0.0,0.0,48,0.00,,---,0.00,VWS V14.01,2013-03-29 07:04:00,
2013-03-29 03:09:00,44.2,25.8,28.17,East,90,0.0,0.0,48,0.00,,---,0.00,VWS V14.01,2013-03-29 07:09:00,
2013-03-29 03:14:00,44.2,25.8,28.17,SSW,202,0.0,0.0,48,0.00,,---,0.00,VWS V14.01,2013-03-29 07:14:00,
2013-03-29 03:19:00,44.2,25.8,28.17,SSW,202,0.0,0.0,48,0.00,,---,0.00,VWS V14.01,2013-03-29 07:19:00,
2013-03-29 03:24:00,44.2,25.8,28.14,WNW,292,0.0,0.0,48,0.00,,---,0.00,VWS V14.01,2013-03-29 07:24:00,
2013-03-29 03:29:00,44.2,25.8,28.14,WNW,292,0.0,0.0,48,0.00,,---,0.00,VWS V14.01,2013-03-29 07:29:00,
2013-03-29 03:34:00,44.2,25.8,28.14,WNW,292,0.0,0.0,48,0.00,,---,0.00,VWS V14.01,2013-03-29 07:34:00,
2013-03-29 03:39:00,44.2,25.8,28.14,NE,45,0.0,0.0,48,0.00,,---,0.00,VWS V14.01,2013-03-29 07:39:00,
2013-03-29 03:44:00,43.9,25.5,28.14,East,90,0.0,0.0,48,0.00,,---,0.00,VWS V14.01,2013-03-29 07:44:00,
2013-03-29 03:50:00,43.7,25.3,28.14,East,90,0.0,0.0,48,0.00,,---,0.00,VWS V14.01,2013-03-29 07:50:00,
2013-03-29 03:55:00,43.7,25.3,28.14,ENE,68,0.0,0.0,48,0.00,,---,0.00,VWS V14.01,2013-03-29 07:55:00,
2013-03-29 04:00:00,43.7,25.3,28.14,East,90,0.0,0.0,48,0.00,,---,0.00,VWS V14.01,2013-03-29 08:00:00,
2013-03-29 04:05:00,43.7,25.3,28.14,SE,135,0.0,0.0,48,0.00,,---,0.00,VWS V14.01,2013-03-29 08:05:00,
2013-03-29 04:10:00,43.5,25.1,28.14,SSW,202,0.0,0.0,48,0.00,,---,0.00,VWS V14.01,2013-03-29 08:10:00,
2013-03-29 04:15:00,43.2,24.8,28.14,SE,135,0.0,0.0,48,0.00,,---,0.00,VWS V14.01,2013-03-29 08:15:00,
2013-03-29 04:20:00,42.8,24.5,28.14,East,90,0.0,0.0,48,0.00,,---,0.00,VWS V14.01,2013-03-29 08:20:00,
2013-03-29 04:25:00,42.4,24.1,28.14,East,90,0.0,0.0,48,0.00,,---,0.00,VWS V14.01,2013-03-29 08:25:00,
2013-03-29 04:30:00,42.3,24.0,28.14,East,90,0.0,0.0,48,0.00,,---,0.00,VWS V14.01,2013-03-29 08:30:00,
2013-03-29 04:35:00,42.1,23.8,28.14,ESE,112,0.0,0.0,48,0.00,,---,0.00,VWS V14.01,2013-03-29 08:35:00,
2013-03-29 04:40:00,42.1,23.8,28.14,NE,45,0.0,0.0,48,0.00,,---,0.00,VWS V14.01,2013-03-29 08:40:00,
2013-03-29 04:45:00,42.3,23.5,28.14,ESE,112,0.0,2.2,47,0.00,,---,0.00,VWS V14.01,2013-03-29 08:45:00,
2013-03-29 04:50:00,42.4,23.1,28.14,SSE,158,0.0,2.9,46,0.00,,---,0.00,VWS V14.01,2013-03-29 08:50:00,
2013-03-29 04:56:00,42.4,22.6,28.14,SE,135,0.9,0.9,45,0.00,,---,0.00,VWS V14.01,2013-03-29 08:56:00,
2013-03-29 05:01:00,42.3,22.5,28.14,ESE,112,1.1,1.1,45,0.00,,---,0.00,VWS V14.01,2013-03-29 09:01:00,
2013-03-29 05:06:00,42.1,22.3,28.14,East,90,0.0,0.0,45,0.00,,---,0.00,VWS V14.01,2013-03-29 09:06:00,
2013-03-29 05:11:00,42.1,22.3,28.14,East,90,0.0,0.0,45,0.00,,---,0.00,VWS V14.01,2013-03-29 09:11:00,
2013-03-29 05:16:00,41.9,22.1,28.14,ESE,112,0.0,0.9,45,0.00,,---,0.00,VWS V14.01,2013-03-29 09:16:00,
2013-03-29 05:21:00,41.9,22.1,28.14,ESE,112,2.0,2.0,45,0.00,,---,0.00,VWS V14.01,2013-03-29 09:21:00,
2013-03-29 05:27:00,41.9,22.1,28.14,SSW,202,0.0,0.0,45,0.00,,---,0.00,VWS V14.01,2013-03-29 09:27:00,
2013-03-29 05:32:00,41.5,21.3,28.14,ESE,112,0.0,0.0,44,0.00,,---,0.00,VWS V14.01,2013-03-29 09:32:00,
2013-03-29 05:37:00,41.5,21.3,28.14,East,90,1.6,1.6,44,0.00,,---,0.00,VWS V14.01,2013-03-29 09:37:00,
2013-03-29 05:42:00,41.5,21.3,28.14,ENE,68,1.6,3.1,44,0.00,,---,0.00,VWS V14.01,2013-03-29 09:42:00,
2013-03-29 05:47:00,41.7,20.9,28.14,NE,45,1.3,1.3,43,0.00,,---,0.00,VWS V14.01,2013-03-29 09:47:00,
2013-03-29 05:52:00,41.7,20.9,28.14,ESE,112,1.1,1.1,43,0.00,,---,0.00,VWS V14.01,2013-03-29 09:52:00,
2013-03-29 05:57:00,41.7,20.9,28.14,East,90,0.0,0.0,43,0.00,,---,0.00,VWS V14.01,2013-03-29 09:57:00,
2013-03-29 06:02:00,41.7,20.9,28.14,East,90,0.0,0.0,43,0.00,,---,0.00,VWS V14.01,2013-03-29 10:02:00,
2013-03-29 06:07:00,41.4,20.6,28.14,ENE,68,0.0,0.9,43,0.00,,---,0.00,VWS V14.01,2013-03-29 10:07:00,
2013-03-29 06:12:00,41.2,20.4,28.14,SE,135,0.0,1.1,43,0.00,,---,0.00,VWS V14.01,2013-03-29 10:12:00,
2013-03-29 06:17:00,41.0,20.2,28.14,ESE,112,0.0,1.1,43,0.00,,---,0.00,VWS V14.01,2013-03-29 10:17:00,
2013-03-29 06:22:00,40.6,19.9,28.14,South,180,0.0,0.0,43,0.00,,---,0.00,VWS V14.01,2013-03-29 10:22:00,
2013-03-29 06:27:00,40.5,19.7,28.14,ENE,68,0.0,0.9,43,0.00,,---,0.00,VWS V14.01,2013-03-29 10:27:00,
2013-03-29 06:33:00,40.1,19.4,28.14,ENE,68,0.0,0.0,43,0.00,,---,0.00,VWS V14.01,2013-03-29 10:33:00,
2013-03-29 06:38:00,40.1,19.4,28.14,ESE,112,0.0,0.9,43,0.00,,---,0.00,VWS V14.01,2013-03-29 10:38:00,
2013-03-29 06:43:00,39.9,19.2,28.14,ESE,112,0.0,0.0,43,0.00,,---,0.00,VWS V14.01,2013-03-29 10:43:00,
2013-03-29 06:48:00,39.7,19.1,28.14,East,90,0.0,0.0,43,0.00,,---,0.00,VWS V14.01,2013-03-29 10:48:00,
2013-03-29 06:53:00,39.4,18.8,28.14,East,90,0.0,0.0,43,0.00,,---,0.00,VWS V14.01,2013-03-29 10:53:00,
2013-03-29 06:58:00,39.0,19.0,28.14,WNW,292,0.9,0.9,44,0.00,,---,0.00,VWS V14.01,2013-03-29 10:58:00,
2013-03-29 07:03:00,39.0,19.0,28.14,East,90,0.0,0.0,44,0.00,,---,0.00,VWS V14.01,2013-03-29 11:03:00,
2013-03-29 07:08:00,39.0,19.0,28.14,ENE,68,0.0,0.0,44,0.00,,---,0.00,VWS V14.01,2013-03-29 11:08:00,
2013-03-29 07:13:00,38.8,18.8,28.14,ENE,68,0.0,0.0,44,0.00,,---,0.00,VWS V14.01,2013-03-29 11:13:00,
2013-03-29 07:18:00,39.2,18.6,28.14,East,90,0.0,0.0,43,0.00,,---,0.00,VWS V14.01,2013-03-29 11:18:00,
2013-03-29 07:23:00,39.6,18.9,28.14,ESE,112,0.0,0.0,43,0.00,,---,0.00,VWS V14.01,2013-03-29 11:23:00,
2013-03-29 07:28:00,39.4,18.8,28.14,ESE,112,0.0,0.0,43,0.00,,---,0.00,VWS V14.01,2013-03-29 11:28:00,
2013-03-29 07:33:00,39.4,19.3,28.14,ESE,112,0.0,0.0,44,0.00,,---,0.00,VWS V14.01,2013-03-29 11:33:00,
2013-03-29 07:38:00,39.9,19.2,28.14,ESE,112,0.0,0.0,43,0.00,,---,0.00,VWS V14.01,2013-03-29 11:38:00,
2013-03-29 07:43:00,40.1,19.4,28.14,ESE,112,0.0,0.0,43,0.00,,---,0.00,VWS V14.01,2013-03-29 11:43:00,
2013-03-29 07:48:00,39.9,19.2,28.14,ESE,112,0.0,0.0,43,0.00,,---,0.00,VWS V14.01,2013-03-29 11:48:00,
2013-03-29 07:53:00,40.1,19.4,28.14,ESE,112,0.0,0.0,43,0.00,,---,0.00,VWS V14.01,2013-03-29 11:53:00,
2013-03-29 07:58:00,40.6,20.5,28.14,ESE,112,0.0,0.0,44,0.00,,---,0.00,VWS V14.01,2013-03-29 11:58:00,
2013-03-29 08:04:00,41.2,20.4,28.14,ESE,112,0.0,0.0,43,0.00,,---,0.00,VWS V14.01,2013-03-29 12:04:00,
2013-03-29 08:09:00,41.5,21.3,28.17,ESE,112,0.0,0.0,44,0.00,,---,0.00,VWS V14.01,2013-03-29 12:09:00,
2013-03-29 08:14:00,41.9,21.0,28.17,East,90,0.0,0.0,43,0.00,,---,0.00,VWS V14.01,2013-03-29 12:14:00,
2013-03-29 08:19:00,42.1,21.8,28.17,East,90,0.0,0.0,44,0.00,,---,0.00,VWS V14.01,2013-03-29 12:19:00,
2013-03-29 08:24:00,42.4,22.1,28.17,ESE,112,0.0,0.0,44,0.00,,---,0.00,VWS V14.01,2013-03-29 12:24:00,
2013-03-29 08:29:00,42.8,21.9,28.17,ESE,112,0.0,0.0,43,0.00,,---,0.00,VWS V14.01,2013-03-29 12:29:00,
2013-03-29 08:34:00,43.0,22.0,28.17,ESE,112,0.0,0.0,43,0.00,,---,0.00,VWS V14.01,2013-03-29 12:34:00,
2013-03-29 08:39:00,43.2,22.2,28.17,East,90,0.0,0.0,43,0.00,,---,0.00,VWS V14.01,2013-03-29 12:39:00,
2013-03-29 08:44:00,43.5,22.5,28.17,ESE,112,0.0,0.0,43,0.00,,---,0.00,VWS V14.01,2013-03-29 12:44:00,
2013-03-29 08:49:00,43.5,22.5,28.17,ESE,112,0.0,0.0,43,0.00,,---,0.00,VWS V14.01,2013-03-29 12:49:00,
2013-03-29 08:54:00,43.7,22.7,28.17,ESE,112,0.0,0.0,43,0.00,,---,0.00,VWS V14.01,2013-03-29 12:54:00,
2013-03-29 08:59:00,43.9,22.9,28.17,ESE,112,0.0,0.0,43,0.00,,---,0.00,VWS V14.01,2013-03-29 12:59:00,
2013-03-29 09:04:00,44.1,23.0,28.17,ESE,112,0.0,0.0,43,0.00,,---,0.00,VWS V14.01,2013-03-29 13:04:00,
2013-03-29 09:09:00,44.1,22.5,28.17,East,90,0.0,0.0,42,0.00,,---,0.00,VWS V14.01,2013-03-29 13:09:00,
2013-03-29 09:14:00,44.2,22.6,28.17,NNW,338,0.0,0.0,42,0.00,,---,0.00,VWS V14.01,2013-03-29 13:14:00,
2013-03-29 09:19:00,44.6,22.9,28.17,East,90,0.0,0.0,42,0.00,,---,0.00,VWS V14.01,2013-03-29 13:19:00,
2013-03-29 09:24:00,44.8,23.1,28.17,East,90,0.0,0.0,42,0.00,,---,0.00,VWS V14.01,2013-03-29 13:24:00,
2013-03-29 09:29:00,45.1,23.4,28.17,ESE,112,0.0,0.0,42,0.00,,---,0.00,VWS V14.01,2013-03-29 13:29:00,
2013-03-29 09:34:00,45.5,23.8,28.17,East,90,0.0,0.0,42,0.00,,---,0.00,VWS V14.01,2013-03-29 13:34:00,
2013-03-29 09:39:00,45.5,23.2,28.17,East,90,0.0,0.0,41,0.00,,---,0.00,VWS V14.01,2013-03-29 13:39:00,
2013-03-29 09:44:00,45.9,23.5,28.17,East,90,0.0,0.0,41,0.00,,---,0.00,VWS V14.01,2013-03-29 13:44:00,
2013-03-29 09:49:00,46.4,24.0,28.17,ESE,112,0.0,0.0,41,0.00,,---,0.00,VWS V14.01,2013-03-29 13:49:00,
2013-03-29 09:54:00,46.9,24.5,28.17,East,90,0.0,2.9,41,0.00,,---,0.00,VWS V14.01,2013-03-29 13:54:00,
2013-03-29 10:00:00,46.9,23.9,28.17,East,90,0.0,2.2,40,0.00,,---,0.00,VWS V14.01,2013-03-29 14:00:00,
2013-03-29 10:05:00,46.9,23.9,28.17,ENE,68,0.0,0.0,40,0.00,,---,0.00,VWS V14.01,2013-03-29 14:05:00,
2013-03-29 10:10:00,47.3,24.2,28.17,ENE,68,0.0,0.0,40,0.00,,---,0.00,VWS V14.01,2013-03-29 14:10:00,
2013-03-29 10:15:00,47.5,24.4,28.17,SE,135,0.0,0.0,40,0.00,,---,0.00,VWS V14.01,2013-03-29 14:15:00,
2013-03-29 10:20:00,47.5,24.4,28.17,SE,135,1.3,1.3,40,0.00,,---,0.00,VWS V14.01,2013-03-29 14:20:00,
2013-03-29 10:25:00,47.7,24.5,28.17,ESE,112,1.1,1.1,40,0.00,,---,0.00,VWS V14.01,2013-03-29 14:25:00,
2013-03-29 10:30:00,47.5,24.4,28.17,SE,135,0.0,0.0,40,0.00,,---,0.00,VWS V14.01,2013-03-29 14:30:00,
2013-03-29 10:35:00,47.5,24.4,28.17,SSW,202,0.0,0.0,40,0.00,,---,0.00,VWS V14.01,2013-03-29 14:35:00,
2013-03-29 10:40:00,47.5,24.4,28.20,ESE,112,0.0,0.0,40,0.00,,---,0.00,VWS V14.01,2013-03-29 14:40:00,
2013-03-29 10:45:00,47.3,24.2,28.20,SE,135,0.0,1.1,40,0.00,,---,0.00,VWS V14.01,2013-03-29 14:45:00,
2013-03-29 10:50:00,47.3,24.2,28.20,East,90,1.6,1.6,40,0.00,,---,0.00,VWS V14.01,2013-03-29 14:50:00,
2013-03-29 10:55:00,47.5,24.4,28.20,ENE,68,0.0,1.3,40,0.00,,---,0.00,VWS V14.01,2013-03-29 14:55:00,
2013-03-29 11:00:00,47.7,24.5,28.20,East,90,0.0,0.0,40,0.00,,---,0.00,VWS V14.01,2013-03-29 15:00:00,
2013-03-29 11:05:00,48.0,24.9,28.20,NNW,338,0.0,0.9,40,0.00,,---,0.00,VWS V14.01,2013-03-29 15:05:00,
2013-03-29 11:10:00,48.6,24.7,28.20,ENE,68,0.0,1.1,39,0.00,,---,0.00,VWS V14.01,2013-03-29 15:10:00,
2013-03-29 11:15:00,48.7,24.9,28.20,East,90,0.0,1.1,39,0.00,,---,0.00,VWS V14.01,2013-03-29 15:15:00,
2013-03-29 11:20:00,48.9,25.1,28.20,SSE,158,0.0,0.9,39,0.00,,---,0.00,VWS V14.01,2013-03-29 15:20:00,
2013-03-29 11:25:00,49.5,25.5,28.20,SE,135,2.0,2.0,39,0.00,,---,0.00,VWS V14.01,2013-03-29 15:25:00,
2013-03-29 11:30:00,49.8,25.9,28.20,SE,135,0.0,2.0,39,0.00,,---,0.00,VWS V14.01,2013-03-29 15:30:00,
2013-03-29 11:35:00,50.4,26.4,28.20,SSW,202,0.9,0.9,39,0.00,,---,0.00,VWS V14.01,2013-03-29 15:35:00,
2013-03-29 11:41:00,50.2,26.2,28.20,East,90,0.0,0.0,39,0.00,,---,0.00,VWS V14.01,2013-03-29 15:41:00,
2013-03-29 11:46:00,50.2,26.2,28.20,East,90,2.0,2.0,39,0.00,,---,0.00,VWS V14.01,2013-03-29 15:46:00,
2013-03-29 11:51:00,50.4,26.4,28.20,North,0,0.0,0.0,39,0.00,,---,0.00,VWS V14.01,2013-03-29 15:51:00,
2013-03-29 11:56:00,50.7,26.7,28.20,South,180,0.0,0.0,39,0.00,,---,0.00,VWS V14.01,2013-03-29 15:56:00,
2013-03-29 12:01:00,50.5,26.5,28.20,East,90,2.0,2.0,39,0.00,,---,0.00,VWS V14.01,2013-03-29 16:01:00,
2013-03-29 12:06:00,50.7,26.7,28.20,South,180,0.0,0.9,39,0.00,,---,0.00,VWS V14.01,2013-03-29 16:06:00,
2013-03-29 12:12:00,51.1,27.0,28.20,WSW,248,0.0,0.0,39,0.00,,---,0.00,VWS V14.01,2013-03-29 16:12:00,
2013-03-29 12:17:00,51.1,27.0,28.20,WSW,248,0.0,0.0,39,0.00,,---,0.00,VWS V14.01,2013-03-29 16:17:00,
2013-03-29 12:22:00,51.1,27.0,28.20,WSW,248,0.0,0.0,39,0.00,,---,0.00,VWS V14.01,2013-03-29 16:22:00,
2013-03-29 12:27:00,50.9,26.2,28.20,NE,45,1.6,1.6,38,0.00,,---,0.00,VWS V14.01,2013-03-29 16:27:00,
2013-03-29 12:32:00,50.9,26.2,28.20,NNW,338,0.0,0.0,38,0.00,,---,0.00,VWS V14.01,2013-03-29 16:32:00,
2013-03-29 12:37:00,50.9,26.2,28.20,WNW,292,0.0,0.0,38,0.00,,---,0.00,VWS V14.01,2013-03-29 16:37:00,
2013-03-29 12:42:00,51.1,26.4,28.20,ENE,68,0.0,0.0,38,0.00,,---,0.00,VWS V14.01,2013-03-29 16:42:00,
2013-03-29 12:47:00,51.4,26.7,28.20,South,180,0.0,0.0,38,0.00,,---,0.00,VWS V14.01,2013-03-29 16:47:00,
2013-03-29 12:52:00,51.8,27.0,28.17,SSE,158,0.0,0.0,38,0.00,,---,0.00,VWS V14.01,2013-03-29 16:52:00,
2013-03-29 12:57:00,52.5,27.7,28.17,ESE,112,1.3,1.3,38,0.00,,---,0.00,VWS V14.01,2013-03-29 16:57:00,
2013-03-29 13:02:00,52.7,27.8,28.17,East,90,0.0,0.0,38,0.00,,---,0.00,VWS V14.01,2013-03-29 17:02:00,
2013-03-29 13:09:00,53.4,28.5,28.17,South,180,0.0,0.0,38,0.00,,---,0.00,VWS V14.01,2013-03-29 17:09:00,
2013-03-29 13:14:00,54.1,29.1,28.17,SSW,202,1.1,1.1,38,0.00,,---,0.00,VWS V14.01,2013-03-29 17:14:00,
2013-03-29 13:19:00,54.5,28.8,28.17,SE,135,0.9,0.9,37,0.00,,---,0.00,VWS V14.01,2013-03-29 17:19:00,
2013-03-29 13:24:00,53.6,28.0,28.17,ESE,112,0.0,0.0,37,0.00,,---,0.00,VWS V14.01,2013-03-29 17:24:00,
2013-03-29 13:29:00,53.2,27.7,28.17,East,90,0.0,0.0,37,0.00,,---,0.00,VWS V14.01,2013-03-29 17:29:00,
2013-03-29 13:34:00,53.4,27.8,28.17,NNE,22,0.0,0.0,37,0.00,,---,0.00,VWS V14.01,2013-03-29 17:34:00,
2013-03-29 13:39:00,54.0,28.3,28.17,ENE,68,0.0,0.0,37,0.00,,---,0.00,VWS V14.01,2013-03-29 17:39:00,
2013-03-29 13:44:00,53.6,28.0,28.17,NNE,22,0.0,0.0,37,0.00,,---,0.00,VWS V14.01,2013-03-29 17:44:00,
2013-03-29 13:49:00,53.2,27.7,28.17,East,90,2.0,2.0,37,0.00,,---,0.00,VWS V14.01,2013-03-29 17:49:00,
2013-03-29 13:54:00,52.3,26.9,28.14,ESE,112,0.0,0.0,37,0.00,,---,0.00,VWS V14.01,2013-03-29 17:54:00,
2013-03-29 13:59:00,52.0,26.5,28.14,East,90,0.9,0.9,37,0.00,,---,0.00,VWS V14.01,2013-03-29 17:59:00,
2013-03-29 14:04:00,51.4,26.7,28.14,East,90,0.0,1.1,38,0.00,,---,0.00,VWS V14.01,2013-03-29 18:04:00,
2013-03-29 14:09:00,51.3,26.5,28.17,WNW,292,0.0,0.0,38,0.00,,---,0.00,VWS V14.01,2013-03-29 18:09:00,
2013-03-29 14:14:00,50.9,26.2,28.17,East,90,1.1,1.1,38,0.00,,---,0.00,VWS V14.01,2013-03-29 18:14:00,
2013-03-29 14:20:00,50.7,26.0,28.17,WNW,292,0.9,1.6,38,0.00,,---,0.00,VWS V14.01,2013-03-29 18:20:00,
2013-03-29 14:25:00,50.5,25.9,28.14,WNW,292,1.1,1.1,38,0.00,,---,0.00,VWS V14.01,2013-03-29 18:25:00,
2013-03-29 14:30:00,51.3,26.5,28.14,SSW,202,0.0,1.3,38,0.00,,---,0.00,VWS V14.01,2013-03-29 18:30:00,
2013-03-29 14:35:00,53.2,28.3,28.14,SE,135,0.9,0.9,38,0.00,,---,0.00,VWS V14.01,2013-03-29 18:35:00,
2013-03-29 14:40:00,54.9,29.1,28.14,WNW,292,0.9,1.1,37,0.00,,---,0.00,VWS V14.01,2013-03-29 18:40:00,
2013-03-29 14:45:00,55.9,30.1,28.14,WNW,292,2.2,2.2,37,0.00,,---,0.00,VWS V14.01,2013-03-29 18:45:00,
2013-03-29 14:50:00,56.8,30.9,28.14,WSW,248,0.0,0.0,37,0.00,,---,0.00,VWS V14.01,2013-03-29 18:50:00,
2013-03-29 14:55:00,57.9,31.1,28.14,WNW,292,1.3,1.3,36,0.00,,---,0.00,VWS V14.01,2013-03-29 18:55:00,
2013-03-29 15:00:00,57.2,30.5,28.14,ESE,112,0.9,0.9,36,0.00,,---,0.00,VWS V14.01,2013-03-29 19:00:00,
2013-03-29 15:05:00,56.7,30.0,28.14,ENE,68,0.9,0.9,36,0.00,,---,0.00,VWS V14.01,2013-03-29 19:05:00,
2013-03-29 15:10:00,57.0,30.4,28.14,WSW,248,0.9,2.5,36,0.00,,---,0.00,VWS V14.01,2013-03-29 19:10:00,
2013-03-29 15:15:00,56.7,30.0,28.14,SE,135,0.0,2.9,36,0.00,,---,0.00,VWS V14.01,2013-03-29 19:15:00,
2013-03-29 15:20:00,56.1,29.5,28.14,East,90,2.7,4.7,36,0.00,,---,0.00,VWS V14.01,2013-03-29 19:20:00,
2013-03-29 15:25:00,56.3,29.7,28.14,WNW,292,0.0,2.2,36,0.00,,---,0.00,VWS V14.01,2013-03-29 19:25:00,
2013-03-29 15:30:00,55.8,29.2,28.14,WNW,292,0.0,2.9,36,0.00,,---,0.00,VWS V14.01,2013-03-29 19:30:00,
2013-03-29 15:35:00,54.9,28.4,28.14,East,90,1.6,2.5,36,0.00,,---,0.00,VWS V14.01,2013-03-29 19:35:00,
2013-03-29 15:40:00,55.0,29.3,28.14,South,180,0.0,0.0,37,0.00,,---,0.00,VWS V14.01,2013-03-29 19:40:00,
2013-03-29 15:45:00,55.0,29.3,28.14,East,90,2.2,3.4,37,0.00,,---,0.00,VWS V14.01,2013-03-29 19:45:00,
2013-03-29 15:50:00,54.9,29.1,28.14,ESE,112,0.9,0.9,37,0.00,,---,0.00,VWS V14.01,2013-03-29 19:50:00,
2013-03-29 15:56:00,54.3,28.6,28.14,WSW,248,1.6,1.6,37,0.00,,---,0.00,VWS V14.01,2013-03-29 19:56:00,
2013-03-29 16:01:00,53.6,28.0,28.14,SW,225,0.0,2.5,37,0.00,,---,0.00,VWS V14.01,2013-03-29 20:01:00,
2013-03-29 16:06:00,53.6,28.0,28.11,NE,45,1.3,2.7,37,0.00,,---,0.00,VWS V14.01,2013-03-29 20:06:00,
2013-03-29 16:11:00,53.1,27.5,28.11,West,270,4.7,4.7,37,0.00,,---,0.00,VWS V14.01,2013-03-29 20:11:00,
2013-03-29 16:16:00,52.5,27.0,28.11,ESE,112,3.8,3.8,37,0.00,,---,0.00,VWS V14.01,2013-03-29 20:16:00,
2013-03-29 16:21:00,52.2,27.3,28.11,ENE,68,0.0,1.1,38,0.00,,---,0.00,VWS V14.01,2013-03-29 20:21:00,
2013-03-29 16:26:00,52.0,27.2,28.11,SW,225,0.9,1.1,38,0.00,,---,0.00,VWS V14.01,2013-03-29 20:26:00,
2013-03-29 16:32:00,52.3,28.1,28.11,ENE,68,2.5,2.7,39,0.00,,---,0.00,VWS V14.01,2013-03-29 20:32:00,
2013-03-29 16:37:00,53.2,28.9,28.11,East,90,1.1,1.1,39,0.00,,---,0.00,VWS V14.01,2013-03-29 20:37:00,
2013-03-29 16:42:00,52.5,28.3,28.11,East,90,2.5,2.5,39,0.00,,---,0.00,VWS V14.01,2013-03-29 20:42:00,
2013-03-29 16:47:00,52.7,28.5,28.11,SE,135,2.7,4.0,39,0.00,,---,0.00,VWS V14.01,2013-03-29 20:47:00,
2013-03-29 16:52:00,53.4,29.1,28.11,North,0,0.9,3.1,39,0.00,,---,0.00,VWS V14.01,2013-03-29 20:52:00,
2013-03-29 16:57:00,54.0,29.6,28.11,NNE,22,0.0,1.6,39,0.00,,---,0.00,VWS V14.01,2013-03-29 20:57:00,
2013-03-29 17:02:00,54.7,30.2,28.11,West,270,0.0,1.3,39,0.00,,---,0.00,VWS V14.01,2013-03-29 21:02:00,
2013-03-29 17:07:00,54.3,29.3,28.11,SW,225,1.6,1.6,38,0.00,,---,0.00,VWS V14.01,2013-03-29 21:07:00,
2013-03-29 17:12:00,54.1,29.1,28.11,East,90,0.0,0.9,38,0.00,,---,0.00,VWS V14.01,2013-03-29 21:12:00,
2013-03-29 17:17:00,53.4,28.5,28.11,ESE,112,0.0,0.0,38,0.00,,---,0.00,VWS V14.01,2013-03-29 21:17:00,
2013-03-29 17:22:00,53.2,28.9,28.11,ENE,68,1.6,3.4,39,0.00,,---,0.00,VWS V14.01,2013-03-29 21:22:00,
2013-03-29 17:27:00,53.1,28.8,28.11,NE,45,1.1,3.1,39,0.00,,---,0.00,VWS V14.01,2013-03-29 21:27:00,
2013-03-29 17:33:00,52.7,28.5,28.11,WSW,248,1.3,3.4,39,0.00,,---,0.00,VWS V14.01,2013-03-29 21:33:00,
2013-03-29 17:38:00,52.3,28.1,28.11,SE,135,1.1,1.1,39,0.00,,---,0.00,VWS V14.01,2013-03-29 21:38:00,
2013-03-29 17:43:00,51.8,27.0,28.11,East,90,3.6,3.6,38,0.00,,---,0.00,VWS V14.01,2013-03-29 21:43:00,
2013-03-29 17:48:00,51.6,27.5,28.11,East,90,0.0,0.0,39,0.00,,---,0.00,VWS V14.01,2013-03-29 21:48:00,
2013-03-29 17:53:00,51.3,27.2,28.08,SSW,202,0.0,2.7,39,0.00,,---,0.00,VWS V14.01,2013-03-29 21:53:00,
2013-03-29 17:58:00,50.9,26.8,28.08,East,90,0.0,0.0,39,0.00,,---,0.00,VWS V14.01,2013-03-29 21:58:00,
2013-03-29 18:03:00,50.4,26.4,28.08,East,90,0.0,2.9,39,0.00,,---,0.00,VWS V14.01,2013-03-29 22:03:00,
2013-03-29 18:08:00,49.8,25.9,28.11,ESE,112,2.5,2.5,39,0.00,,---,0.00,VWS V14.01,2013-03-29 22:08:00,
2013-03-29 18:13:00,49.5,26.2,28.11,WSW,248,0.9,3.4,40,0.00,,---,0.00,VWS V14.01,2013-03-29 22:13:00,
2013-03-29 18:18:00,49.3,26.0,28.11,NNE,22,2.7,2.7,40,0.00,,---,0.00,VWS V14.01,2013-03-29 22:18:00,
2013-03-29 18:22:00,48.9,25.7,28.08,ENE,68,0.0,0.0,40,0.00,,---,0.00,VWS V14.01,2013-03-29 22:22:00,
2013-03-29 18:28:00,48.9,25.7,28.08,WNW,292,0.0,0.0,40,0.00,,---,0.00,VWS V14.01,2013-03-29 22:28:00,
2013-03-29 18:33:00,48.6,26.0,28.08,ESE,112,0.0,3.8,41,0.00,,---,0.00,VWS V14.01,2013-03-29 22:33:00,
2013-03-29 18:38:00,48.2,26.2,28.08,ESE,112,2.2,2.2,42,0.00,,---,0.00,VWS V14.01,2013-03-29 22:38:00,
2013-03-29 18:43:00,47.8,26.4,28.08,ESE,112,0.0,0.0,43,0.00,,---,0.00,VWS V14.01,2013-03-29 22:43:00,
2013-03-29 18:48:00,47.8,27.0,28.08,North,0,2.5,2.5,44,0.00,,---,0.00,VWS V14.01,2013-03-29 22:48:00,
2013-03-29 18:53:00,47.5,27.8,28.08,WNW,292,1.1,1.1,46,0.00,,---,0.00,VWS V14.01,2013-03-29 22:53:00,
2013-03-29 18:58:00,47.3,28.1,28.08,NW,315,2.2,2.2,47,0.00,,---,0.00,VWS V14.01,2013-03-29 22:58:00,
2013-03-29 19:03:00,47.1,27.9,28.08,WSW,248,0.0,0.0,47,0.00,,---,0.00,VWS V14.01,2013-03-29 23:03:00,
2013-03-29 19:08:00,47.1,28.5,28.08,SSE,158,0.0,0.0,48,0.00,,---,0.00,VWS V14.01,2013-03-29 23:08:00,
2013-03-29 19:13:00,46.8,28.6,28.08,NW,315,2.2,2.2,49,0.00,,---,0.00,VWS V14.01,2013-03-29 23:13:00,
2013-03-29 19:18:00,46.6,28.5,28.08,SSW,202,1.3,1.3,49,0.00,,---,0.00,VWS V14.01,2013-03-29 23:18:00,
2013-03-29 19:23:00,46.4,28.8,28.08,East,90,0.0,0.0,50,0.00,,---,0.00,VWS V14.01,2013-03-29 23:23:00,
2013-03-29 19:28:00,46.2,29.1,28.08,SSW,202,0.0,0.0,51,0.00,,---,0.00,VWS V14.01,2013-03-29 23:28:00,
2013-03-29 19:33:00,46.0,28.9,28.08,ENE,68,0.9,0.9,51,0.00,,---,0.00,VWS V14.01,2013-03-29 23:33:00,
2013-03-29 19:38:00,45.9,28.8,28.08,ESE,112,0.0,0.0,51,0.00,,---,0.00,VWS V14.01,2013-03-29 23:38:00,
2013-03-29 19:43:00,45.9,28.8,28.08,SSE,158,0.0,0.0,51,0.00,,---,0.00,VWS V14.01,2013-03-29 23:43:00,
2013-03-29 19:49:00,45.9,28.8,28.08,WNW,292,0.0,0.0,51,0.00,,---,0.00,VWS V14.01,2013-03-29 23:49:00,
2013-03-29 19:54:00,45.7,29.1,28.08,North,0,0.0,0.9,52,0.00,,---,0.00,VWS V14.01,2013-03-29 23:54:00,
2013-03-29 19:59:00,45.5,29.4,28.08,ENE,68,0.0,0.0,53,0.00,,---,0.00,VWS V14.01,2013-03-29 23:59:00,
2013-03-29 20:04:00,45.3,30.6,28.08,SW,225,1.6,1.6,56,0.00,,---,0.00,VWS V14.01,2013-03-30 00:04:00,
2013-03-29 20:09:00,45.1,30.4,28.08,SSW,202,0.0,0.0,56,0.00,,---,0.00,VWS V14.01,2013-03-30 00:09:00,
2013-03-29 20:14:00,45.1,30.4,28.08,East,90,0.0,0.0,56,0.00,,---,0.00,VWS V14.01,2013-03-30 00:14:00,
2013-03-29 20:19:00,44.8,30.9,28.08,ESE,112,0.0,0.0,58,0.00,,---,0.00,VWS V14.01,2013-03-30 00:19:00,
2013-03-29 20:24:00,44.8,30.5,28.08,ENE,68,0.0,0.0,57,0.00,,---,0.00,VWS V14.01,2013-03-30 00:24:00,
2013-03-29 20:29:00,44.4,31.4,28.08,SSW,202,1.1,1.1,60,0.00,,---,0.00,VWS V14.01,2013-03-30 00:29:00,
2013-03-29 20:34:00,44.2,31.2,28.08,West,270,0.0,2.7,60,0.00,,---,0.00,VWS V14.01,2013-03-30 00:34:00,
2013-03-29 20:39:00,44.1,31.5,28.08,SSW,202,0.9,2.5,61,0.00,,---,0.00,VWS V14.01,2013-03-30 00:39:00,
2013-03-29 20:44:00,43.7,32.0,28.08,WSW,248,0.0,1.3,63,0.00,,---,0.00,VWS V14.01,2013-03-30 00:44:00,
2013-03-29 20:49:00,43.5,31.8,28.08,East,90,0.0,0.0,63,0.00,,---,0.00,VWS V14.01,2013-03-30 00:49:00,
2013-03-29 20:54:00,43.5,32.5,28.08,WSW,248,0.0,0.0,65,0.00,,---,0.00,VWS V14.01,2013-03-30 00:54:00,
2013-03-29 20:59:00,43.3,32.4,28.08,South,180,0.0,0.0,65,0.00,,---,0.00,VWS V14.01,2013-03-30 00:59:00,
2013-03-29 21:04:00,43.3,32.4,28.08,ESE,112,0.0,0.0,65,0.00,,---,0.00,VWS V14.01,2013-03-30 01:04:00,
2013-03-29 21:10:00,43.2,32.6,28.08,East,90,0.0,0.0,66,0.00,,---,0.00,VWS V14.01,2013-03-30 01:10:00,
2013-03-29 21:15:00,43.0,32.4,28.08,SSW,202,0.0,0.0,66,0.00,,---,0.00,VWS V14.01,2013-03-30 01:15:00,
2013-03-29 21:20:00,43.0,32.8,28.08,SSW,202,0.0,0.0,67,0.00,,---,0.00,VWS V14.01,2013-03-30 01:20:00,
2013-03-29 21:25:00,43.0,33.2,28.08,SSW,202,0.0,0.0,68,0.00,,---,0.00,VWS V14.01,2013-03-30 01:25:00,
2013-03-29 21:30:00,43.0,33.2,28.08,ENE,68,1.6,1.6,68,0.00,,---,0.00,VWS V14.01,2013-03-30 01:30:00,
2013-03-29 21:35:00,42.8,33.3,28.08,South,180,0.0,0.0,69,0.00,,---,0.00,VWS V14.01,2013-03-30 01:35:00,
2013-03-29 21:40:00,42.8,34.1,28.08,SE,135,0.0,0.0,71,0.00,,---,0.00,VWS V14.01,2013-03-30 01:40:00,
2013-03-29 21:45:00,42.8,34.1,28.08,West,270,0.0,0.0,71,0.00,,---,0.00,VWS V14.01,2013-03-30 01:45:00,
2013-03-29 21:50:00,42.6,34.6,28.08,SW,225,0.0,0.0,73,0.00,,---,0.00,VWS V14.01,2013-03-30 01:50:00,
2013-03-29 21:55:00,42.6,34.6,28.08,South,180,0.0,1.1,73,0.00,,---,0.00,VWS V14.01,2013-03-30 01:55:00,
2013-03-29 22:00:00,42.6,34.6,28.08,WSW,248,0.0,0.0,73,0.00,,---,0.00,VWS V14.01,2013-03-30 02:00:00,
2013-03-29 22:05:00,42.4,34.8,28.08,South,180,0.9,0.9,74,0.00,,---,0.00,VWS V14.01,2013-03-30 02:05:00,
2013-03-29 22:10:00,42.4,34.8,28.08,West,270,0.0,0.0,74,0.00,,---,0.00,VWS V14.01,2013-03-30 02:10:00,
2013-03-29 22:15:00,42.6,34.9,28.08,SW,225,0.0,0.0,74,0.00,,---,0.00,VWS V14.01,2013-03-30 02:15:00,
2013-03-29 22:20:00,42.4,34.8,28.08,SW,225,0.9,1.1,74,0.00,,---,0.00,VWS V14.01,2013-03-30 02:20:00,
2013-03-29 22:25:00,42.4,35.1,28.08,SW,225,0.0,0.0,75,0.00,,---,0.00,VWS V14.01,2013-03-30 02:25:00,
2013-03-29 22:30:00,42.4,34.8,28.08,South,180,0.0,0.0,74,0.00,,---,0.00,VWS V14.01,2013-03-30 02:30:00,
2013-03-29 22:36:00,42.4,35.1,28.08,SW,225,0.0,0.0,75,0.00,,---,0.00,VWS V14.01,2013-03-30 02:36:00,
2013-03-29 22:41:00,42.6,35.3,28.08,East,90,0.0,0.0,75,0.00,,---,0.00,VWS V14.01,2013-03-30 02:41:00,
2013-03-29 22:46:00,42.6,35.3,28.08,WSW,248,0.0,0.0,75,0.00,,---,0.00,VWS V14.01,2013-03-30 02:46:00,
2013-03-29 22:51:00,42.4,35.1,28.08,SSE,158,0.0,0.0,75,0.00,,---,0.00,VWS V14.01,2013-03-30 02:51:00,
2013-03-29 22:56:00,42.4,35.4,28.08,SSE,158,0.0,0.0,76,0.00,,---,0.00,VWS V14.01,2013-03-30 02:56:00,
2013-03-29 23:01:00,42.4,35.8,28.08,South,180,0.9,0.9,77,0.00,,---,0.00,VWS V14.01,2013-03-30 03:01:00,
2013-03-29 23:06:00,42.4,35.8,28.08,WSW,248,0.0,0.0,77,0.00,,---,0.00,VWS V14.01,2013-03-30 03:06:00,
2013-03-29 23:11:00,42.4,36.4,28.08,WSW,248,0.0,0.9,79,0.00,,---,0.00,VWS V14.01,2013-03-30 03:11:00,
2013-03-29 23:16:00,42.4,36.4,28.08,ENE,68,0.0,0.0,79,0.00,,---,0.00,VWS V14.01,2013-03-30 03:16:00,
2013-03-29 23:22:00,42.4,37.0,28.08,ESE,112,0.0,0.0,81,0.00,,---,0.00,VWS V14.01,2013-03-30 03:22:00,
2013-03-29 23:27:00,42.3,35.9,28.08,SSE,158,0.0,0.0,78,0.00,,---,0.00,VWS V14.01,2013-03-30 03:27:00,
2013-03-29 23:32:00,42.4,36.4,28.08,East,90,2.7,2.7,79,0.00,,---,0.00,VWS V14.01,2013-03-30 03:32:00,
2013-03-29 23:37:00,42.4,36.1,28.08,ENE,68,0.0,0.0,78,0.00,,---,0.00,VWS V14.01,2013-03-30 03:37:00,
2013-03-29 23:42:00,42.4,36.1,28.08,WSW,248,0.0,0.0,78,0.00,,---,0.00,VWS V14.01,2013-03-30 03:42:00,
2013-03-29 23:47:00,42.4,35.8,28.08,WNW,292,0.0,0.0,77,0.00,,---,0.00,VWS V14.01,2013-03-30 03:47:00,
2013-03-29 23:52:00,42.4,35.8,28.08,WSW,248,0.0,0.0,77,0.00,,---,0.00,VWS V14.01,2013-03-30 03:52:00,
2013-03-29 23:58:00,42.4,36.1,28.08,WNW,292,0.0,0.0,78,0.00,,---,0.00,VWS V14.01,2013-03-30 03:58:00,